PVL7681 CYYT-CYHZ

Flight info

Callsign PVL7681
Flight time N/A
Altitude 24000
Route CYYT/34 TEXED DCT SILRO DCT CAYLY CABOT5
Aircraft DH8D/M-SDE2E3FGRY/H

Departure

Time 2026-04-27 22:29
Airport St. John's International Airport (CYYT)

Arrival

Time N/A
Airport Halifax / Stanfield International Airport (CYHZ)
Time Latitude Longitude Altitude Speed Heading
2026-04-27 22:05 47.61405 -52.74397 449 ft 0 kts 203°
2026-04-27 22:19 47.61404 -52.74397 449 ft 0 kts 203°
2026-04-27 22:20 47.61411 -52.74393 449 ft 2 kts 203°
2026-04-27 22:20 47.61425 -52.74384 449 ft 2 kts 203°
2026-04-27 22:20 47.61436 -52.74376 448 ft 0 kts 203°
2026-04-27 22:21 47.61448 -52.74371 448 ft 2 kts 186°
2026-04-27 22:21 47.61462 -52.74372 447 ft 2 kts 164°
2026-04-27 22:21 47.61475 -52.74382 447 ft 2 kts 142°
2026-04-27 22:21 47.61485 -52.74398 448 ft 2 kts 120°
2026-04-27 22:22 47.61489 -52.74408 448 ft 0 kts 112°
2026-04-27 22:24 47.61486 -52.74398 448 ft 4 kts 111°
2026-04-27 22:24 47.61448 -52.74268 444 ft 18 kts 113°
2026-04-27 22:25 47.61398 -52.74094 438 ft 15 kts 113°
2026-04-27 22:25 47.61357 -52.73987 435 ft 10 kts 139°
2026-04-27 22:25 47.61298 -52.73962 436 ft 5 kts 164°
2026-04-27 22:25 47.61269 -52.73906 435 ft 8 kts 113°
2026-04-27 22:26 47.61239 -52.73812 432 ft 11 kts 117°
2026-04-27 22:26 47.61197 -52.73696 429 ft 13 kts 118°
2026-04-27 22:26 47.61161 -52.73598 426 ft 4 kts 118°
2026-04-27 22:26 47.61140 -52.73544 425 ft 8 kts 117°
2026-04-27 22:27 47.61112 -52.73463 422 ft 8 kts 109°
2026-04-27 22:27 47.61138 -52.73387 418 ft 8 kts 28°
2026-04-27 22:27 47.61186 -52.73392 417 ft 7 kts 322°
2026-04-27 22:27 47.61208 -52.73420 417 ft 0 kts 320°
2026-04-27 22:28 47.61317 -52.73558 419 ft 56 kts 319°
2026-04-27 22:29 47.61813 -52.74200 436 ft 123 kts 323°
2026-04-27 22:29 47.62506 -52.75052 747 ft 139 kts 326°
2026-04-27 22:29 47.63240 -52.75990 1369 ft 142 kts 326°
2026-04-27 22:29 47.63973 -52.77005 1985 ft 149 kts 324°
2026-04-27 22:30 47.64688 -52.78086 2570 ft 151 kts 319°
2026-04-27 22:30 47.65105 -52.79548 2997 ft 168 kts 279°
2026-04-27 22:30 47.65036 -52.81304 3522 ft 172 kts 271°
2026-04-27 22:30 47.64921 -52.83077 4023 ft 174 kts 272°
2026-04-27 22:31 47.64803 -52.84829 4545 ft 174 kts 271°
2026-04-27 22:31 47.64679 -52.86628 5052 ft 176 kts 271°
2026-04-27 22:31 47.64554 -52.88422 5554 ft 177 kts 271°
2026-04-27 22:31 47.64426 -52.90234 6053 ft 178 kts 271°
2026-04-27 22:32 47.64297 -52.92050 6540 ft 180 kts 271°
2026-04-27 22:32 47.64164 -52.93899 7048 ft 180 kts 271°
2026-04-27 22:32 47.64030 -52.95741 7539 ft 182 kts 271°
2026-04-27 22:32 47.63896 -52.97589 8028 ft 182 kts 271°
2026-04-27 22:33 47.63761 -52.99444 8499 ft 183 kts 271°
2026-04-27 22:33 47.63624 -53.01317 8959 ft 184 kts 271°
2026-04-27 22:33 47.63486 -53.03196 9409 ft 186 kts 271°
2026-04-27 22:33 47.63345 -53.05101 9875 ft 186 kts 271°
2026-04-27 22:34 47.63203 -53.07040 10242 ft 195 kts 271°
2026-04-27 22:34 47.63056 -53.09130 10448 ft 209 kts 270°
2026-04-27 22:34 47.62894 -53.11263 10912 ft 212 kts 270°
2026-04-27 22:34 47.62727 -53.13433 11398 ft 213 kts 270°
2026-04-27 22:35 47.62559 -53.15632 11882 ft 214 kts 270°
2026-04-27 22:35 47.62393 -53.17798 12368 ft 215 kts 270°
2026-04-27 22:35 47.62225 -53.20000 12856 ft 216 kts 270°
2026-04-27 22:35 47.62057 -53.22212 13350 ft 216 kts 269°
2026-04-27 22:36 47.61889 -53.24421 13815 ft 219 kts 269°
2026-04-27 22:36 47.61720 -53.26647 14300 ft 220 kts 269°
2026-04-27 22:36 47.61548 -53.28907 14753 ft 222 kts 269°
2026-04-27 22:36 47.61375 -53.31159 15199 ft 224 kts 269°
2026-04-27 22:37 47.61198 -53.33471 15655 ft 224 kts 269°
2026-04-27 22:37 47.61020 -53.35778 16060 ft 227 kts 268°